Time,TemperatureF,DewpointF,PressureIn,WindDirection,WindDirectionDegrees,WindSpeedMPH,WindSpeedGustMPH,Humidity,HourlyPrecipIn,Conditions,Clouds,dailyrainin,SoftwareType,DateUTC
2013-05-03 00:00:00,50.8,25.9,30.09,South,180,4.7,5.4,38,0.00,,,0.00,WUHU216HW,2013-05-03 06:00:00,
2013-05-03 00:10:00,50.2,26.1,30.09,SSE,158,6.9,6.9,39,0.00,,,0.00,WUHU216HW,2013-05-03 06:10:00,
2013-05-03 00:20:00,49.7,25.7,30.09,SSE,158,6.9,7.2,39,0.00,,,0.00,WUHU216HW,2013-05-03 06:20:00,
2013-05-03 00:30:00,49.3,25.3,30.09,SSE,158,1.8,6.7,39,0.00,,,0.00,WUHU216HW,2013-05-03 06:30:00,
2013-05-03 00:40:00,49.0,25.0,30.09,South,180,4.5,6.3,39,0.00,,,0.00,WUHU216HW,2013-05-03 06:40:00,
2013-05-03 00:50:00,48.8,25.5,30.09,SSE,158,5.8,5.8,40,0.00,,,0.00,WUHU216HW,2013-05-03 06:50:00,
2013-05-03 01:00:00,48.4,25.2,30.09,South,180,4.5,6.0,40,0.00,,,0.00,WUHU216HW,2013-05-03 07:00:00,
2013-05-03 01:10:00,48.4,25.8,30.09,SW,225,3.4,4.7,41,0.00,,,0.00,WUHU216HW,2013-05-03 07:10:00,
2013-05-03 01:20:00,48.1,25.9,30.08,SSE,158,6.5,8.1,42,0.00,,,0.00,WUHU216HW,2013-05-03 07:20:00,
2013-05-03 01:31:00,47.7,25.7,30.08,South,180,8.3,8.5,42,0.00,,,0.00,WUHU216HW,2013-05-03 07:31:00,
2013-05-03 01:41:00,47.3,25.8,30.08,SE,135,7.2,9.4,43,0.00,,,0.00,WUHU216HW,2013-05-03 07:41:00,
2013-05-03 01:51:00,47.2,26.2,30.08,South,180,6.9,7.8,44,0.00,,,0.00,WUHU216HW,2013-05-03 07:51:00,
2013-05-03 02:01:00,47.0,26.0,30.07,SSE,158,5.4,8.5,44,0.00,,,0.00,WUHU216HW,2013-05-03 08:01:00,
2013-05-03 02:11:00,46.8,25.9,30.07,South,180,5.8,6.9,44,0.00,,,0.00,WUHU216HW,2013-05-03 08:11:00,
2013-05-03 02:21:00,46.8,25.9,30.07,SSE,158,5.1,7.6,44,0.00,,,0.00,WUHU216HW,2013-05-03 08:21:00,
2013-05-03 02:31:00,46.8,25.9,30.07,SSE,158,4.7,4.9,44,0.00,,,0.00,WUHU216HW,2013-05-03 08:31:00,
2013-05-03 02:41:00,47.0,26.0,30.06,NE,45,1.8,3.6,44,0.00,,,0.00,WUHU216HW,2013-05-03 08:41:00,
2013-05-03 02:51:00,46.8,25.9,30.07,SE,135,0.4,1.1,44,0.00,,,0.00,WUHU216HW,2013-05-03 08:51:00,
2013-05-03 03:01:00,46.8,25.9,30.07,SSE,158,1.8,2.0,44,0.00,,,0.00,WUHU216HW,2013-05-03 09:01:00,
2013-05-03 03:11:00,46.8,25.4,30.06,SSW,203,0.7,2.0,43,0.00,,,0.00,WUHU216HW,2013-05-03 09:11:00,
2013-05-03 03:21:00,46.8,25.9,30.06,SE,135,1.1,1.3,44,0.00,,,0.00,WUHU216HW,2013-05-03 09:21:00,
2013-05-03 03:31:00,46.8,25.9,30.07,SSW,203,2.5,3.4,44,0.00,,,0.00,WUHU216HW,2013-05-03 09:31:00,
2013-05-03 03:41:00,46.6,25.8,30.06,East,90,0.9,3.4,44,0.00,,,0.00,WUHU216HW,2013-05-03 09:41:00,
2013-05-03 03:51:00,46.4,25.6,30.06,SSE,158,0.2,2.9,44,0.00,,,0.00,WUHU216HW,2013-05-03 09:51:00,
2013-05-03 04:01:00,46.4,25.6,30.07,SE,135,2.0,2.5,44,0.00,,,0.00,WUHU216HW,2013-05-03 10:01:00,
2013-05-03 04:11:00,46.4,25.6,30.07,SE,135,4.0,4.0,44,0.00,,,0.00,WUHU216HW,2013-05-03 10:11:00,
2013-05-03 04:21:00,46.3,25.9,30.07,SSE,158,4.5,4.5,45,0.00,,,0.00,WUHU216HW,2013-05-03 10:21:00,
2013-05-03 04:31:00,46.1,26.3,30.07,SSE,158,3.6,3.6,46,0.00,,,0.00,WUHU216HW,2013-05-03 10:31:00,
2013-05-03 04:41:00,45.7,26.6,30.07,SSE,158,3.4,5.4,47,0.00,,,0.00,WUHU216HW,2013-05-03 10:41:00,
2013-05-03 04:51:00,45.7,26.6,30.07,West,270,0.4,2.7,47,0.00,,,0.00,WUHU216HW,2013-05-03 10:51:00,
2013-05-03 05:01:00,45.5,26.9,30.07,South,180,1.3,2.5,48,0.00,,,0.00,WUHU216HW,2013-05-03 11:01:00,
2013-05-03 05:11:00,45.5,26.9,30.07,SSE,158,0.2,1.6,48,0.00,,,0.00,WUHU216HW,2013-05-03 11:11:00,
2013-05-03 05:21:00,45.5,26.9,30.07,SSE,158,0.0,0.4,48,0.00,,,0.00,WUHU216HW,2013-05-03 11:21:00,
2013-05-03 05:32:00,45.4,26.7,30.07,SSE,158,0.0,0.0,48,0.00,,,0.00,WUHU216HW,2013-05-03 11:32:00,
2013-05-03 05:42:00,45.4,27.3,30.06,SE,135,0.0,0.9,49,0.00,,,0.00,WUHU216HW,2013-05-03 11:42:00,
2013-05-03 05:52:00,45.2,27.1,30.06,WSW,248,0.7,0.7,49,0.00,,,0.00,WUHU216HW,2013-05-03 11:52:00,
2013-05-03 06:02:00,45.0,27.0,30.06,WSW,248,0.0,0.7,49,0.00,,,0.00,WUHU216HW,2013-05-03 12:02:00,
2013-05-03 06:12:00,45.0,27.0,30.06,WSW,248,0.0,0.0,49,0.00,,,0.00,WUHU216HW,2013-05-03 12:12:00,
2013-05-03 06:22:00,45.0,27.0,30.06,SSW,203,0.0,0.0,49,0.00,,,0.00,WUHU216HW,2013-05-03 12:22:00,
2013-05-03 06:32:00,45.0,27.6,30.06,ESE,113,0.2,1.1,50,0.00,,,0.00,WUHU216HW,2013-05-03 12:32:00,
2013-05-03 06:42:00,44.8,27.4,30.06,ESE,113,1.3,1.3,50,0.00,,,0.00,WUHU216HW,2013-05-03 12:42:00,
2013-05-03 06:52:00,44.8,27.8,30.06,SSW,203,1.1,1.1,51,0.00,,,0.00,WUHU216HW,2013-05-03 12:52:00,
2013-05-03 07:02:00,45.0,28.5,30.06,NNE,23,0.4,1.1,52,0.00,,,0.00,WUHU216HW,2013-05-03 13:02:00,
2013-05-03 07:12:00,44.8,28.3,30.07,North,0,0.0,1.1,52,0.00,,,0.00,WUHU216HW,2013-05-03 13:12:00,
2013-05-03 07:22:00,45.0,28.9,30.07,SSE,158,0.9,2.7,53,0.00,,,0.00,WUHU216HW,2013-05-03 13:22:00,
2013-05-03 07:32:00,45.0,29.4,30.06,WSW,248,2.2,4.0,54,0.00,,,0.00,WUHU216HW,2013-05-03 13:32:00,
2013-05-03 07:42:00,45.2,29.9,30.06,South,180,1.8,3.4,55,0.00,,,0.00,WUHU216HW,2013-05-03 13:42:00,
2013-05-03 07:52:00,45.7,30.0,30.06,ENE,68,0.0,1.3,54,0.00,,,0.00,WUHU216HW,2013-05-03 13:52:00,
2013-05-03 08:02:00,46.3,30.4,30.06,ESE,113,2.2,2.2,54,0.00,,,0.00,WUHU216HW,2013-05-03 14:02:00,
2013-05-03 08:12:00,46.4,30.6,30.07,WNW,293,0.9,2.2,54,0.00,,,0.00,WUHU216HW,2013-05-03 14:12:00,
2013-05-03 08:22:00,46.8,30.5,30.06,North,0,0.7,1.8,53,0.00,,,0.00,WUHU216HW,2013-05-03 14:22:00,
2013-05-03 08:32:00,47.2,30.8,30.07,NW,315,1.6,2.0,53,0.00,,,0.00,WUHU216HW,2013-05-03 14:32:00,
2013-05-03 08:42:00,47.3,31.4,30.07,West,270,1.8,2.9,54,0.00,,,0.00,WUHU216HW,2013-05-03 14:42:00,
2013-05-03 08:52:00,47.2,31.3,30.06,NNE,23,1.1,2.0,54,0.00,,,0.00,WUHU216HW,2013-05-03 14:52:00,
2013-05-03 09:02:00,47.5,31.6,30.07,NW,315,1.1,1.1,54,0.00,,,0.00,WUHU216HW,2013-05-03 15:02:00,
2013-05-03 09:13:00,47.7,32.2,30.07,NW,315,1.3,2.0,55,0.00,,,0.00,WUHU216HW,2013-05-03 15:13:00,
2013-05-03 09:23:00,47.9,32.0,30.07,NW,315,1.1,3.6,54,0.00,,,0.00,WUHU216HW,2013-05-03 15:23:00,
2013-05-03 09:33:00,48.2,32.3,30.07,North,0,0.4,1.8,54,0.00,,,0.00,WUHU216HW,2013-05-03 15:33:00,
2013-05-03 09:43:00,48.8,32.9,30.07,NNE,23,2.2,2.2,54,0.00,,,0.00,WUHU216HW,2013-05-03 15:43:00,
2013-05-03 09:53:00,49.5,33.0,30.07,North,0,5.1,5.1,53,0.00,,,0.00,WUHU216HW,2013-05-03 15:53:00,
2013-05-03 10:03:00,50.0,32.7,30.07,NNE,23,2.2,4.5,51,0.00,,,0.00,WUHU216HW,2013-05-03 16:03:00,
2013-05-03 10:13:00,50.2,32.9,30.07,North,0,3.4,4.3,51,0.00,,,0.00,WUHU216HW,2013-05-03 16:13:00,
2013-05-03 10:23:00,50.6,34.5,30.07,NNE,23,2.7,6.3,54,0.00,,,0.00,WUHU216HW,2013-05-03 16:23:00,
2013-05-03 10:33:00,51.5,35.7,30.07,WNW,293,5.6,8.5,55,0.00,,,0.00,WUHU216HW,2013-05-03 16:33:00,
2013-05-03 10:43:00,51.5,35.7,30.08,NNW,338,3.4,8.3,55,0.00,,,0.00,WUHU216HW,2013-05-03 16:43:00,
2013-05-03 10:53:00,51.5,35.7,30.08,NNE,23,3.6,8.3,55,0.00,,,0.00,WUHU216HW,2013-05-03 16:53:00,
2013-05-03 11:03:00,51.5,36.2,30.08,NW,315,6.9,8.1,56,0.00,,,0.00,WUHU216HW,2013-05-03 17:03:00,
2013-05-03 11:13:00,51.5,36.6,30.08,NW,315,3.4,6.5,57,0.00,,,0.00,WUHU216HW,2013-05-03 17:13:00,
2013-05-03 11:23:00,51.5,37.1,30.08,NW,315,3.4,5.6,58,0.00,,,0.00,WUHU216HW,2013-05-03 17:23:00,
2013-05-03 11:33:00,51.7,36.8,30.08,NW,315,1.8,5.4,57,0.00,,,0.00,WUHU216HW,2013-05-03 17:33:00,
2013-05-03 11:43:00,51.8,37.9,30.08,North,0,5.4,6.5,59,0.00,,,0.00,WUHU216HW,2013-05-03 17:43:00,
2013-05-03 11:53:00,52.0,37.6,30.08,North,0,1.8,5.8,58,0.00,,,0.00,WUHU216HW,2013-05-03 17:53:00,
2013-05-03 12:03:00,52.0,37.6,30.08,WNW,293,1.8,5.4,58,0.00,,,0.00,WUHU216HW,2013-05-03 18:03:00,
2013-05-03 12:13:00,52.2,37.8,30.08,NW,315,1.3,5.6,58,0.00,,,0.00,WUHU216HW,2013-05-03 18:13:00,
2013-05-03 12:23:00,52.7,38.4,30.07,NW,315,2.0,4.3,58,0.00,,,0.00,WUHU216HW,2013-05-03 18:23:00,
2013-05-03 12:33:00,53.3,38.4,30.07,NW,315,3.8,5.8,57,0.00,,,0.00,WUHU216HW,2013-05-03 18:33:00,
2013-05-03 12:43:00,53.5,38.1,30.07,North,0,4.0,4.9,56,0.00,,,0.00,WUHU216HW,2013-05-03 18:43:00,
2013-05-03 12:53:00,53.5,38.1,30.07,North,0,2.0,4.5,56,0.00,,,0.00,WUHU216HW,2013-05-03 18:53:00,
2013-05-03 13:03:00,53.8,38.0,30.07,NW,315,1.8,4.0,55,0.00,,,0.00,WUHU216HW,2013-05-03 19:03:00,
2013-05-03 13:13:00,54.2,37.8,30.07,North,0,2.7,4.7,54,0.00,,,0.00,WUHU216HW,2013-05-03 19:13:00,
2013-05-03 13:24:00,54.9,39.0,30.07,North,0,2.0,4.7,55,0.00,,,0.00,WUHU216HW,2013-05-03 19:24:00,
2013-05-03 13:34:00,55.8,38.9,30.07,NNW,338,1.8,5.6,53,0.00,,,0.00,WUHU216HW,2013-05-03 19:34:00,
2013-05-03 13:44:00,56.5,39.6,30.06,NW,315,1.8,8.1,53,0.00,,,0.00,WUHU216HW,2013-05-03 19:44:00,
2013-05-03 13:54:00,56.3,38.4,30.06,West,270,3.1,10.3,51,0.00,,,0.00,WUHU216HW,2013-05-03 19:54:00,
2013-05-03 14:04:00,56.0,38.1,30.06,North,0,4.5,8.1,51,0.00,,,0.00,WUHU216HW,2013-05-03 20:04:00,
2013-05-03 14:14:00,56.0,39.1,30.06,NNW,338,6.5,8.3,53,0.00,,,0.00,WUHU216HW,2013-05-03 20:14:00,
2013-05-03 14:24:00,56.5,39.6,30.06,NW,315,7.2,8.7,53,0.00,,,0.00,WUHU216HW,2013-05-03 20:24:00,
2013-05-03 14:34:00,55.3,38.4,30.06,WNW,293,8.7,11.2,53,0.00,,,0.00,WUHU216HW,2013-05-03 20:34:00,
2013-05-03 14:44:00,55.8,39.8,30.06,NE,45,5.1,6.9,55,0.00,,,0.00,WUHU216HW,2013-05-03 20:44:00,
2013-05-03 14:54:00,56.9,40.0,30.06,WNW,293,3.6,11.2,53,0.00,,,0.00,WUHU216HW,2013-05-03 20:54:00,
2013-05-03 15:04:00,57.2,39.3,30.06,West,270,4.7,6.5,51,0.00,,,0.00,WUHU216HW,2013-05-03 21:04:00,
2013-05-03 15:14:00,57.2,40.3,30.05,NW,315,6.3,9.6,53,0.00,,,0.00,WUHU216HW,2013-05-03 21:14:00,
2013-05-03 15:24:00,57.2,39.8,30.05,North,0,8.5,11.0,52,0.00,,,0.00,WUHU216HW,2013-05-03 21:24:00,
2013-05-03 15:34:00,57.2,38.9,30.05,NE,45,3.1,9.2,50,0.00,,,0.00,WUHU216HW,2013-05-03 21:34:00,
2013-05-03 15:44:00,56.7,38.8,30.05,North,0,4.5,6.3,51,0.00,,,0.00,WUHU216HW,2013-05-03 21:44:00,
2013-05-03 15:54:00,56.0,39.1,30.05,WNW,293,3.6,11.4,53,0.00,,,0.00,WUHU216HW,2013-05-03 21:54:00,
2013-05-03 16:04:00,55.4,39.0,30.06,West,270,4.0,11.4,54,0.00,,,0.00,WUHU216HW,2013-05-03 22:04:00,
2013-05-03 16:14:00,56.0,40.0,30.05,NNE,23,5.4,9.6,55,0.00,,,0.00,WUHU216HW,2013-05-03 22:14:00,
2013-05-03 16:24:00,56.3,39.4,30.05,NE,45,9.8,9.8,53,0.00,,,0.00,WUHU216HW,2013-05-03 22:24:00,
2013-05-03 16:34:00,56.9,40.0,30.05,WNW,293,8.9,9.4,53,0.00,,,0.00,WUHU216HW,2013-05-03 22:34:00,
2013-05-03 16:44:00,56.9,39.0,30.05,WNW,293,6.0,11.4,51,0.00,,,0.00,WUHU216HW,2013-05-03 22:44:00,
2013-05-03 16:54:00,57.1,39.2,30.05,NNW,338,9.8,9.8,51,0.00,,,0.00,WUHU216HW,2013-05-03 22:54:00,
2013-05-03 17:04:00,57.1,39.2,30.05,NNW,338,4.7,9.6,51,0.00,,,0.00,WUHU216HW,2013-05-03 23:04:00,
2013-05-03 17:14:00,57.2,38.9,30.04,WNW,293,9.4,9.8,50,0.00,,,0.00,WUHU216HW,2013-05-03 23:14:00,
2013-05-03 17:25:00,57.1,38.7,30.04,NNW,338,3.6,5.8,50,0.00,,,0.00,WUHU216HW,2013-05-03 23:25:00,
2013-05-03 17:35:00,57.1,38.7,30.05,WNW,293,5.4,10.1,50,0.00,,,0.00,WUHU216HW,2013-05-03 23:35:00,
2013-05-03 17:45:00,56.3,38.0,30.04,NNW,338,7.6,11.6,50,0.00,,,0.00,WUHU216HW,2013-05-03 23:45:00,
2013-05-03 17:55:00,57.1,38.7,30.04,WNW,293,2.9,7.4,50,0.00,,,0.00,WUHU216HW,2013-05-03 23:55:00,
2013-05-03 18:05:00,57.8,38.3,30.04,NW,315,4.7,11.4,48,0.00,,,0.00,WUHU216HW,2013-05-04 00:05:00,
2013-05-03 18:15:00,58.3,39.2,30.05,NNW,338,4.0,7.8,49,0.00,,,0.00,WUHU216HW,2013-05-04 00:15:00,
2013-05-03 18:25:00,57.6,39.3,30.05,North,0,7.6,9.8,50,0.00,,,0.00,WUHU216HW,2013-05-04 00:25:00,
2013-05-03 18:35:00,56.5,38.2,30.05,North,0,8.1,11.0,50,0.00,,,0.00,WUHU216HW,2013-05-04 00:35:00,
2013-05-03 18:45:00,56.2,38.7,30.05,North,0,7.4,9.6,52,0.00,,,0.00,WUHU216HW,2013-05-04 00:45:00,
2013-05-03 18:55:00,55.4,39.0,30.05,NW,315,4.5,11.2,54,0.00,,,0.00,WUHU216HW,2013-05-04 00:55:00,
2013-05-03 19:05:00,55.3,38.4,30.05,NW,315,6.5,11.2,53,0.00,,,0.00,WUHU216HW,2013-05-04 01:05:00,
2013-05-03 19:15:00,54.9,39.0,30.05,NNW,338,6.9,11.4,55,0.00,,,0.00,WUHU216HW,2013-05-04 01:15:00,
2013-05-03 19:25:00,54.7,39.2,30.05,North,0,7.6,7.6,56,0.00,,,0.00,WUHU216HW,2013-05-04 01:25:00,
2013-05-03 19:35:00,54.5,39.5,30.05,North,0,6.5,9.8,57,0.00,,,0.00,WUHU216HW,2013-05-04 01:35:00,
2013-05-03 19:45:00,54.2,39.7,30.05,West,270,5.4,8.3,58,0.00,,,0.00,WUHU216HW,2013-05-04 01:45:00,
2013-05-03 19:55:00,53.6,39.7,30.05,NW,315,8.3,14.1,59,0.00,,,0.00,WUHU216HW,2013-05-04 01:55:00,
2013-05-03 20:05:00,53.3,39.3,30.05,NNW,338,4.7,11.0,59,0.00,,,0.00,WUHU216HW,2013-05-04 02:05:00,
2013-05-03 20:15:00,52.9,39.8,30.06,NNW,338,2.7,6.9,61,0.00,,,0.00,WUHU216HW,2013-05-04 02:15:00,
2013-05-03 20:25:00,52.4,40.2,30.06,North,0,3.1,6.3,63,0.00,,,0.00,WUHU216HW,2013-05-04 02:25:00,
2013-05-03 20:36:00,52.2,40.0,30.06,NNE,23,3.6,5.6,63,0.00,,,0.00,WUHU216HW,2013-05-04 02:36:00,
2013-05-03 20:46:00,52.0,39.3,30.06,NNE,23,1.8,5.8,62,0.00,,,0.00,WUHU216HW,2013-05-04 02:46:00,
2013-05-03 20:56:00,52.0,39.8,30.06,NNW,338,1.1,6.9,63,0.00,,,0.00,WUHU216HW,2013-05-04 02:56:00,
2013-05-03 21:06:00,52.0,39.3,30.07,North,0,1.8,1.8,62,0.00,,,0.00,WUHU216HW,2013-05-04 03:06:00,
2013-05-03 21:16:00,51.8,39.2,30.07,ESE,113,0.9,2.2,62,0.00,,,0.00,WUHU216HW,2013-05-04 03:16:00,
2013-05-03 21:26:00,51.8,39.2,30.07,SW,225,0.7,2.2,62,0.00,,,0.00,WUHU216HW,2013-05-04 03:26:00,
2013-05-03 21:36:00,51.7,39.4,30.08,South,180,2.5,2.9,63,0.00,,,0.00,WUHU216HW,2013-05-04 03:36:00,
2013-05-03 21:46:00,51.5,39.2,30.07,SSW,203,1.3,2.7,63,0.00,,,0.00,WUHU216HW,2013-05-04 03:46:00,
2013-05-03 21:56:00,51.3,39.1,30.08,South,180,2.5,2.7,63,0.00,,,0.00,WUHU216HW,2013-05-04 03:56:00,
2013-05-03 22:06:00,51.1,39.3,30.08,SW,225,1.6,2.5,64,0.00,,,0.00,WUHU216HW,2013-05-04 04:06:00,
2013-05-03 22:16:00,50.9,39.2,30.08,West,270,1.1,1.8,64,0.00,,,0.00,WUHU216HW,2013-05-04 04:16:00,
2013-05-03 22:26:00,50.8,39.0,30.08,WNW,293,0.4,0.4,64,0.00,,,0.00,WUHU216HW,2013-05-04 04:26:00,
2013-05-03 22:36:00,50.8,39.0,30.08,WSW,248,0.4,1.3,64,0.00,,,0.00,WUHU216HW,2013-05-04 04:36:00,
2013-05-03 22:46:00,50.4,38.6,30.08,WSW,248,0.4,1.6,64,0.00,,,0.00,WUHU216HW,2013-05-04 04:46:00,
2013-05-03 22:56:00,50.0,38.4,30.08,SSW,203,2.5,2.5,64,0.00,,,0.00,WUHU216HW,2013-05-04 04:56:00,
2013-05-03 23:06:00,49.7,38.3,30.08,SW,225,2.5,2.5,65,0.00,,,0.00,WUHU216HW,2013-05-04 05:06:00,
2013-05-03 23:16:00,49.3,38.4,30.08,SW,225,0.9,2.5,66,0.00,,,0.00,WUHU216HW,2013-05-04 05:16:00,
2013-05-03 23:26:00,49.1,38.3,30.08,SSW,203,2.0,2.5,66,0.00,,,0.00,WUHU216HW,2013-05-04 05:26:00,
2013-05-03 23:36:00,49.0,38.1,30.08,SSE,158,1.6,2.2,66,0.00,,,0.00,WUHU216HW,2013-05-04 05:36:00,
2013-05-03 23:46:00,48.8,37.9,30.08,South,180,1.3,2.2,66,0.00,,,0.00,WUHU216HW,2013-05-04 05:46:00,
2013-05-03 23:56:00,48.8,38.3,30.08,SSE,158,1.8,1.8,67,0.00,,,0.00,WUHU216HW,2013-05-04 05:56:00,